Weather History for Fort Indiantown Gap, PA

Change the Weather History Date:

Thursday, December 6, 2012

  Actual Average Record
Temperature  
Mean Temperature 32 °F -  
Max Temperature 39 °F 43 °F 66 °F (2001)
Min Temperature 25 °F 31 °F 13 °F (2007)
Degree Days  
Heating Degree Days 33    
Moisture  
Dew Point 20 °F    
Average Humidity 62    
Maximum Humidity 87    
Minimum Humidity 45    
Precipitation  
Precipitation 0.00 in - - ()
Sea Level Pressure  
Sea Level Pressure 30.32 in    
Wind  
Wind Speed 2 mph (NE)    
Max Wind Speed 8 mph    
Max Gust Speed 16 mph    
Visibility 10 miles    
Events      
Averages and records for this station are not official NWS values.
T = Trace of Precipitation, MM = Missing Value Source: NWS Daily Summary

Daily Weather History Graph

Daily Weather History Graph

Search for Another Location

Airport:

Trip Planner

Search our weather history database for the weather conditions in past years. The results will help you decide how hot, cold, wet, or windy it might be!

Date:

Astronomy

Dec. 06, 2012 Rise Set
Actual Time 7:15 AM EST 4:39 PM EST
Civil Twilight 6:44 AM EST 5:10 PM EST
Nautical Twilight 6:10 AM EST 5:44 PM EST
Astronomical Twilight 5:37 AM EST 6:17 PM EST
Moon No Moon Rise 12:05 PM EST (12/6)
Length of Visible Light 10h 25m
Length of Day
9h 24m
Waning Gibbous, 49% of the Moon is Illuminated
Dec 6
Waning Gibbous
Dec 13
New
Dec 20
First Quarter
Dec 28
Full
Jan 4
Last Quarter

Hourly Weather History & Observations

Time (EST) Temp. Windchill Dew Point Humidity Pressure Visibility Wind Dir Wind Speed Gust Speed Precip Events Conditions
12:55 AM 33.1 °F - 18.3 °F 55% 30.32 in 10.0 mi Calm Calm - N/A   Clear
1:55 AM 32.0 °F 27.5 °F 18.1 °F 57% 30.33 in 10.0 mi WNW 4.6 mph - N/A   Clear
2:55 AM 31.8 °F - 18.0 °F 57% 30.34 in 10.0 mi Calm Calm - N/A   Clear
3:55 AM 30.7 °F 24.9 °F 18.1 °F 60% 30.33 in 10.0 mi NNE 5.8 mph 16.1 mph N/A   Clear
4:55 AM 30.6 °F 27.1 °F 18.1 °F 60% 30.34 in 10.0 mi Variable 3.5 mph - N/A   Clear
5:55 AM 29.5 °F - 17.8 °F 62% 30.35 in 10.0 mi Calm Calm - N/A   Clear
6:55 AM 28.4 °F 24.6 °F 17.4 °F 63% 30.37 in 10.0 mi NNE 3.5 mph - N/A   Clear
7:55 AM 29.5 °F - 17.8 °F 62% 30.38 in 10.0 mi Calm Calm - N/A   Clear
8:55 AM 31.6 °F 24.4 °F 18.5 °F 58% 30.38 in 10.0 mi NE 8.1 mph - N/A   Clear
9:55 AM 34.0 °F - 19.0 °F 54% 30.38 in 10.0 mi Calm Calm - N/A   Clear
10:55 AM 35.2 °F 32.4 °F 18.3 °F 50% 30.38 in 10.0 mi SE 3.5 mph - N/A   Clear
11:55 AM 37.4 °F - 19.4 °F 48% 30.35 in 10.0 mi Calm Calm - N/A   Clear
12:55 PM 37.8 °F 35.3 °F 19.0 °F 47% 30.32 in 10.0 mi Variable 3.5 mph - N/A   Clear
1:55 PM 39.2 °F 35.0 °F 19.6 °F 45% 30.30 in 10.0 mi South 5.8 mph - N/A   Clear
2:55 PM 39.0 °F 36.8 °F 19.6 °F 46% 30.28 in 10.0 mi Variable 3.5 mph - N/A   Clear
3:55 PM 38.3 °F 35.9 °F 21.0 °F 50% 30.28 in 10.0 mi SSE 3.5 mph - N/A   Clear
4:55 PM 36.1 °F - 21.9 °F 56% 30.28 in 10.0 mi Calm Calm - N/A   Clear
5:55 PM 32.4 °F - 22.5 °F 67% 30.28 in 10.0 mi Calm Calm - N/A   Clear
6:55 PM 28.9 °F - 22.3 °F 76% 30.29 in 10.0 mi Calm Calm - N/A   Clear
7:55 PM 28.6 °F - 22.3 °F 77% 30.28 in 10.0 mi Calm Calm - N/A   Clear
8:55 PM 27.1 °F - 21.7 °F 80% 30.29 in 10.0 mi Calm Calm - N/A   Clear
9:55 PM 26.4 °F - 22.1 °F 84% 30.28 in 10.0 mi Calm Calm - N/A   Clear
10:55 PM 25.5 °F 21.3 °F 22.1 °F 87% 30.27 in 10.0 mi NNE 3.5 mph - N/A   Clear
11:55 PM 26.2 °F 22.1 °F 22.3 °F 85% 30.27 in 10.0 mi NNE 3.5 mph - N/A   Clear